#timestamp,LO_Frequency,Hit,Temp,Hum 
1480215615.4,286046967.9,N,0.0,0.0
1480215635.2,286046968.4,N,0.0,0.0
1480215655.1,286046968.9,N,0.0,0.0
1480215656.0,286046968.9,N,0.0,0.0
1480215675.8,286046968.8,N,0.0,0.0
1480215695.6,286046966.6,N,0.0,0.0
1480215715.5,286046966.8,N,0.0,0.0
1480215735.3,286046967.3,N,0.0,0.0
1480215755.2,286046966.8,N,0.0,0.0
1480215775.9,286046964.8,N,0.0,0.0
1480215795.7,286046965.4,N,0.0,0.0
1480215815.6,286046966.0,N,0.0,0.0
1480215835.4,286046964.2,N,0.0,0.0
1480215855.2,286046963.7,N,0.0,0.0
1480215875.1,286046961.4,N,0.0,0.0
1480215876.0,286046961.4,N,0.0,0.0
1480215895.8,286046961.8,N,0.0,0.0
1480215915.7,286046962.0,N,0.0,0.0
1480215935.5,286046962.0,N,0.0,0.0
1480215955.3,286046962.3,N,0.0,0.0
1480215975.2,286046962.3,N,0.0,0.0
1480215995.0,286046959.9,N,0.0,0.0
1480215995.9,286046959.9,N,0.0,0.0
1480216015.8,286046960.4,N,0.0,0.0
1480216035.6,286046960.8,N,0.0,0.0
1480216055.4,286046961.1,N,0.0,0.0
1480216075.3,286046961.0,N,0.0,0.0
1480216095.1,286046958.6,N,0.0,0.0
1480216115.8,286046958.1,N,0.0,0.0
1480216135.7,286046958.4,N,0.0,0.0
1480216155.5,286046959.3,N,0.0,0.0
1480216175.4,286046959.6,N,0.0,0.0
1480216195.2,286046956.6,N,0.0,0.0
1480216215.0,286046956.6,N,0.0,0.0
1480216215.9,286046956.6,N,0.0,0.0
1480216235.8,286046956.8,N,0.0,0.0
1480216255.6,286046957.8,N,0.0,0.0
1480216275.4,286046957.6,N,0.0,0.0
1480216295.3,286046955.6,N,0.0,0.0
1480216315.1,286046955.5,N,0.0,0.0
1480216335.9,286046956.1,N,0.0,0.0
1480216355.7,286046955.9,N,0.0,0.0
1480216375.5,286046956.0,N,0.0,0.0
1480216395.4,286046956.1,N,0.0,0.0
1480216415.2,286046955.7,N,0.0,0.0
1480216435.0,286046956.2,N,0.0,0.0
1480216436.0,286046956.2,N,0.0,0.0
1480216455.8,286046953.7,N,0.0,0.0
1480216475.6,286046953.5,N,0.0,0.0
1480216495.5,286046953.4,N,0.0,0.0
1480216515.3,286046953.7,N,0.0,0.0
1480216535.1,286046953.7,N,0.0,0.0
1480216555.9,286046954.1,N,0.0,0.0
1480216575.7,286046954.1,N,0.0,0.0
1480216595.6,286046951.8,N,0.0,0.0
1480216615.4,286046951.7,N,0.0,0.0
1480216635.2,286046952.6,N,0.0,0.0
1480216655.1,286046952.8,N,0.0,0.0
1480216656.0,286046952.8,N,0.0,0.0
1480216675.8,286046953.0,N,0.0,0.0
1480216695.7,286046952.8,N,0.0,0.0
1480216715.5,286046950.3,N,0.0,0.0
1480216735.3,286046951.3,N,0.0,0.0
1480216755.2,286046948.6,N,0.0,0.0
1480216775.9,286046951.5,N,0.0,0.0
1480216795.7,286046951.2,N,0.0,0.0
1480216815.6,286046948.8,N,0.0,0.0
1480216835.4,286046948.8,N,0.0,0.0
1480216855.3,286046947.0,N,0.0,0.0
1480216875.1,286046949.9,N,0.0,0.0
1480216876.0,286046949.9,N,0.0,0.0
1480216895.8,286046947.0,N,0.0,0.0
1480216915.7,286046947.2,N,0.0,0.0
1480216935.5,286046947.8,N,0.0,0.0
1480216955.4,286046948.0,N,0.0,0.0
1480216975.2,286046947.9,N,0.0,0.0
1480216995.0,286046948.3,N,0.0,0.0
1480216995.9,286046948.3,N,0.0,0.0
1480217015.8,286046946.2,N,0.0,0.0
1480217035.6,286046946.8,N,0.0,0.0
1480217055.4,286046944.2,N,0.0,0.0
1480217075.3,286046944.0,N,0.0,0.0
1480217095.1,286046944.0,N,0.0,0.0
1480217115.9,286046943.8,N,0.0,0.0
1480217135.7,286046944.0,N,0.0,0.0
1480217155.5,286046944.9,N,0.0,0.0
1480217175.4,286046944.9,N,0.0,0.0
1480217195.2,286046942.2,N,0.0,0.0
1480217215.1,286046942.5,N,0.0,0.0
1480217216.0,286046942.5,N,0.0,0.0
1480217235.8,286046942.3,N,0.0,0.0
1480217255.6,286046942.2,N,0.0,0.0
1480217275.5,286046942.9,N,0.0,0.0
1480217295.3,286046940.5,N,0.0,0.0
1480217315.1,286046941.7,N,0.0,0.0
1480217335.9,286046941.7,N,0.0,0.0
1480217355.7,286046939.1,N,0.0,0.0
1480217375.6,286046939.8,N,0.0,0.0
1480217395.4,286046939.6,N,0.0,0.0
1480217415.2,286046939.3,N,0.0,0.0
1480217435.1,286046939.4,N,0.0,0.0
1480217436.0,286046939.4,N,0.0,0.0
1480217455.8,286046941.6,N,0.0,0.0
1480217475.7,286046939.3,N,0.0,0.0
1480217495.5,286046939.1,N,0.0,0.0
1480217515.3,286046939.7,N,0.0,0.0
1480217535.2,286046939.8,N,0.0,0.0
1480217555.9,286046939.7,N,0.0,0.0
1480217575.7,286046937.7,N,0.0,0.0
1480217595.6,286046938.4,N,0.0,0.0
1480217615.4,286046938.8,N,0.0,0.0
1480217635.3,286046935.9,N,0.0,0.0
1480217655.1,286046936.1,N,0.0,0.0
1480217656.0,286046936.1,N,0.0,0.0
1480217675.8,286046936.3,N,0.0,0.0
1480217695.7,286046936.0,N,0.0,0.0
1480217715.5,286046935.9,N,0.0,0.0
1480217735.3,286046936.4,N,0.0,0.0
1480217755.2,286046936.0,N,0.0,0.0
1480217775.0,286046936.3,N,0.0,0.0
1480217775.9,286046936.3,N,0.0,0.0
1480217795.8,286046936.1,N,0.0,0.0
1480217815.6,286046936.4,N,0.0,0.0
1480217835.4,286046936.5,N,0.0,0.0
1480217855.3,286046937.1,N,0.0,0.0
1480217875.1,286046936.8,N,0.0,0.0
1480217895.9,286046934.5,N,0.0,0.0
1480217915.7,286046934.7,N,0.0,0.0
1480217935.5,286046935.6,N,0.0,0.0
1480217955.4,286046935.6,N,0.0,0.0
1480217975.2,286046932.6,N,0.0,0.0
1480217995.0,286046932.8,N,0.0,0.0
1480217995.9,286046932.8,N,0.0,0.0
1480218015.8,286046933.4,N,0.0,0.0
1480218035.6,286046933.8,N,0.0,0.0
1480218055.5,286046933.7,N,0.0,0.0
1480218075.3,286046931.4,N,0.0,0.0
1480218095.1,286046931.1,N,0.0,0.0
1480218115.9,286046931.3,N,0.0,0.0
1480218135.7,286046931.0,N,0.0,0.0
1480218155.6,286046931.7,N,0.0,0.0
1480218175.4,286046931.7,N,0.0,0.0
1480218195.2,286046931.9,N,0.0,0.0
1480218215.1,286046932.3,N,0.0,0.0
1480218216.0,286046932.3,N,0.0,0.0
1480218235.8,286046929.6,N,0.0,0.0
1480218255.6,286046930.5,N,0.0,0.0
1480218275.5,286046929.5,N,0.0,0.0
1480218295.3,286046932.4,N,0.0,0.0
1480218315.2,286046932.4,N,0.0,0.0
1480218335.9,286046929.9,N,0.0,0.0
1480218355.7,286046929.6,N,0.0,0.0
1480218375.6,286046929.8,N,0.0,0.0
1480218395.4,286046930.2,N,0.0,0.0
1480218415.2,286046930.7,N,0.0,0.0
1480218435.1,286046927.7,N,0.0,0.0
1480218436.0,286046927.7,N,0.0,0.0
1480218455.8,286046927.7,N,0.0,0.0
1480218475.7,286046928.1,N,0.0,0.0
1480218495.5,286046928.3,N,0.0,0.0
1480218515.3,286046928.3,N,0.0,0.0
1480218535.2,286046928.0,N,0.0,0.0
1480218555.0,286046929.0,N,0.0,0.0
1480218555.9,286046929.0,N,0.0,0.0
1480218575.8,286046928.5,N,0.0,0.0
1480218595.6,286046928.7,N,0.0,0.0
1480218615.4,286046926.6,N,0.0,0.0
1480218635.3,286046926.9,N,0.0,0.0
1480218655.1,286046927.1,N,0.0,0.0
1480218675.8,286046924.7,N,0.0,0.0
1480218695.7,286046925.7,N,0.0,0.0
1480218715.5,286046925.9,N,0.0,0.0
1480218735.4,286046925.8,N,0.0,0.0
1480218755.2,286046926.0,N,0.0,0.0
1480218775.0,286046925.9,N,0.0,0.0
1480218775.9,286046925.9,N,0.0,0.0
1480218795.8,286046925.6,N,0.0,0.0
1480218815.6,286046925.5,N,0.0,0.0
1480218835.4,286046923.0,N,0.0,0.0
1480218855.3,286046923.0,N,0.0,0.0
1480218875.1,286046923.6,N,0.0,0.0
1480218895.9,286046923.9,N,0.0,0.0
1480218915.7,286046921.7,N,0.0,0.0
1480218935.5,286046924.3,N,0.0,0.0
1480218955.4,286046924.0,N,0.0,0.0
1480218975.2,286046924.0,N,0.0,0.0
1480218995.0,286046923.9,N,0.0,0.0
1480218996.0,286046923.9,N,0.0,0.0
1480219015.8,286046921.4,N,0.0,0.0
1480219035.6,286046922.6,N,0.0,0.0
1480219055.5,286046922.6,N,0.0,0.0
1480219075.3,286046922.6,N,0.0,0.0
1480219095.1,286046922.4,N,0.0,0.0
1480219115.9,286046919.8,N,0.0,0.0
1480219135.7,286046920.9,N,0.0,0.0
1480219155.6,286046920.9,N,0.0,0.0
1480219175.4,286046919.9,N,0.0,0.0
1480219195.2,286046920.0,N,0.0,0.0
